• In Portugal
  • List of Countries
  • For 7 days
  • Water Temperature
  • Satellite Maps
  • Weather Map
  • Weather Widgets
  • user-avatar
    Login

    Hourly Weather Kanye

    Today, 18 August, Saturday

    Time Temperature Precipitation Wind Pressure Humidity
    00:00 +13°C° 0 mm 5 mps 654 mmHg 25%
    01:00 +12°C° 0 mm 5 mps 653 mmHg 30%
    02:00 +9°C° 0 mm 6 mps 653 mmHg 40%
    03:00 +8°C° 0 mm 5 mps 653 mmHg 43%
    04:00 +8°C° 0 mm 5 mps 653 mmHg 45%
    05:00 +7°C° 0 mm 5 mps 653 mmHg 47%
    06:00 +7°C° 0 mm 4 mps 653 mmHg 47%
    07:00 +7°C° 0 mm 4 mps 654 mmHg 46%
    08:00 +8°C° 0 mm 5 mps 654 mmHg 43%
    09:00 +12°C° 0 mm 4 mps 655 mmHg 35%
    10:00 +14°C° 0 mm 3 mps 655 mmHg 26%
    11:00 +18°C° 0 mm 3 mps 655 mmHg 17%
    12:00 +20°C° 0 mm 3 mps 655 mmHg 15%
    13:00 +21°C° 0 mm 2 mps 655 mmHg 13%
    14:00 +24°C° 0 mm 2 mps 655 mmHg 11%
    15:00 +24°C° 0 mm 2 mps 655 mmHg 11%
    16:00 +24°C° 0 mm 2 mps 654 mmHg 11%
    17:00 +24°C° 0 mm 2 mps 654 mmHg 11%
    18:00 +21°C° 0 mm 2 mps 654 mmHg 15%
    19:00 +19°C° 0 mm 2 mps 654 mmHg 20%
    20:00 +17°C° 0 mm 2 mps 653 mmHg 24%
    21:00 +17°C° 0 mm 3 mps 654 mmHg 37%
    22:00 +15°C° 0 mm 4 mps 654 mmHg 50%
    23:00 +15°C° 0 mm 5 mps 655 mmHg 63%

    Tomorrow, 19 August, Sunday

    Time Temperature Precipitation Wind Pressure Humidity
    00:00 +14°C° 0 mm 5 mps 654 mmHg 67%
    01:00 +14°C° 0 mm 5 mps 654 mmHg 71%
    02:00 +13°C° 0 mm 5 mps 654 mmHg 75%
    03:00 +13°C° 0 mm 6 mps 654 mmHg 77%
    04:00 +11°C° 0 mm 6 mps 654 mmHg 78%
    05:00 +11°C° 0 mm 6 mps 653 mmHg 80%
    06:00 +11°C° 0 mm 6 mps 654 mmHg 79%
    07:00 +11°C° 0 mm 6 mps 654 mmHg 78%
    08:00 +11°C° 0 mm 7 mps 654 mmHg 77%
    09:00 +14°C° 0 mm 7 mps 655 mmHg 70%
    10:00 +15°C° 0 mm 6 mps 655 mmHg 63%
    11:00 +17°C° 0 mm 6 mps 655 mmHg 57%
    12:00 +20°C° 0 mm 6 mps 655 mmHg 49%
    13:00 +22°C° 0 mm 5 mps 654 mmHg 41%
    14:00 +25°C° 0 mm 4 mps 654 mmHg 34%
    15:00 +25°C° 0 mm 4 mps 654 mmHg 30%
    16:00 +26°C° 0 mm 3 mps 653 mmHg 26%
    17:00 +26°C° 0 mm 3 mps 653 mmHg 23%
    18:00 +24°C° 0 mm 3 mps 653 mmHg 26%
    19:00 +21°C° 0 mm 2 mps 653 mmHg 30%
    20:00 +19°C° 0 mm 2 mps 652 mmHg 34%
    21:00 +19°C° 0 mm 2 mps 652 mmHg 37%
    22:00 +18°C° 0 mm 3 mps 653 mmHg 39%
    23:00 +18°C° 0 mm 3 mps 653 mmHg 42%

    Day after tomorrow, 20 August, Monday

    Time Temperature Precipitation Wind Pressure Humidity
    00:00 +17°C° 0 mm 3 mps 652 mmHg 46%
    01:00 +15°C° 0 mm 4 mps 652 mmHg 50%
    02:00 +15°C° 0 mm 4 mps 651 mmHg 54%
    03:00 +14°C° 0 mm 4 mps 651 mmHg 56%
    04:00 +14°C° 0 mm 3 mps 651 mmHg 59%
    05:00 +13°C° 0 mm 3 mps 650 mmHg 61%
    06:00 +14°C° 0 mm 3 mps 651 mmHg 59%
    07:00 +16°C° 0 mm 3 mps 651 mmHg 57%
    08:00 +16°C° 0 mm 3 mps 652 mmHg 55%
    09:00 +19°C° 0 mm 4 mps 653 mmHg 46%
    10:00 +22°C° 0 mm 5 mps 653 mmHg 37%
    11:00 +26°C° 0 mm 5 mps 654 mmHg 28%
    12:00 +28°C° 0 mm 6 mps 654 mmHg 24%
    13:00 +29°C° 0 mm 6 mps 653 mmHg 19%
    14:00 +32°C° 0 mm 6 mps 653 mmHg 15%
    15:00 +30°C° 0 mm 6 mps 652 mmHg 15%
    16:00 +30°C° 0 mm 5 mps 652 mmHg 14%
    17:00 +30°C° 0 mm 5 mps 651 mmHg 14%
    18:00 +28°C° 0 mm 4 mps 651 mmHg 16%
    19:00 +25°C° 0 mm 3 mps 651 mmHg 18%
    20:00 +23°C° 0 mm 2 mps 651 mmHg 20%
    21:00 +23°C° 0 mm 2 mps 651 mmHg 21%
    22:00 +21°C° 0 mm 2 mps 651 mmHg 22%
    23:00 +20°C° 0 mm 2 mps 651 mmHg 22%

    21 August, Tuesday

    Time Temperature Precipitation Wind Pressure Humidity
    00:00 +20°C° 0 mm 2 mps 651 mmHg 23%
    01:00 +19°C° 0 mm 2 mps 650 mmHg 25%
    02:00 +18°C° 0 mm 2 mps 650 mmHg 26%
    03:00 +17°C° 0 mm 2 mps 649 mmHg 27%
    04:00 +17°C° 0 mm 2 mps 649 mmHg 29%
    05:00 +16°C° 0 mm 2 mps 649 mmHg 30%
    06:00 +17°C° 0 mm 2 mps 650 mmHg 29%
    07:00 +18°C° 0 mm 2 mps 650 mmHg 27%
    08:00 +19°C° 0 mm 3 mps 651 mmHg 26%
    09:00 +22°C° 0 mm 4 mps 652 mmHg 22%
    10:00 +24°C° 0 mm 6 mps 653 mmHg 18%
    11:00 +28°C° 0 mm 7 mps 653 mmHg 14%
    12:00 +29°C° 0 mm 8 mps 653 mmHg 13%
    13:00 +31°C° 0 mm 8 mps 652 mmHg 12%
    14:00 +31°C° 0 mm 8 mps 652 mmHg 11%
    15:00 +31°C° 0 mm 8 mps 652 mmHg 10%
    16:00 +29°C° 0 mm 7 mps 652 mmHg 10%
    17:00 +28°C° 0 mm 7 mps 651 mmHg 9%
    18:00 +26°C° 0 mm 6 mps 651 mmHg 10%
    19:00 +23°C° 0 mm 6 mps 651 mmHg 10%
    20:00 +20°C° 0 mm 5 mps 652 mmHg 10%
    21:00 +19°C° 0 mm 6 mps 652 mmHg 15%
    22:00 +17°C° 0 mm 6 mps 652 mmHg 20%
    23:00 +15°C° 0 mm 7 mps 652 mmHg 25%

    22 August, Wednesday

    Time Temperature Precipitation Wind Pressure Humidity
    00:00 +14°C° 0 mm 7 mps 652 mmHg 29%
    01:00 +13°C° 0 mm 6 mps 652 mmHg 33%
    02:00 +11°C° 0 mm 6 mps 652 mmHg 37%
    03:00 +10°C° 0 mm 5 mps 651 mmHg 38%
    04:00 +11°C° 0 mm 4 mps 651 mmHg 40%
    05:00 +10°C° 0 mm 3 mps 651 mmHg 42%
    06:00 +10°C° 0 mm 3 mps 651 mmHg 40%
    07:00 +11°C° 0 mm 3 mps 651 mmHg 39%
    08:00 +12°C° 0 mm 3 mps 652 mmHg 38%
    09:00 +14°C° 0 mm 3 mps 652 mmHg 30%
    10:00 +18°C° 0 mm 3 mps 653 mmHg 23%
    11:00 +21°C° 0 mm 2 mps 653 mmHg 16%
    12:00 +23°C° 0 mm 2 mps 653 mmHg 14%
    13:00 +25°C° 0 mm 2 mps 653 mmHg 11%
    14:00 +27°C° 0 mm 1 mps 652 mmHg 9%
    15:00 +26°C° 0 mm 2 mps 652 mmHg 10%
    16:00 +26°C° 0 mm 2 mps 652 mmHg 10%
    17:00 +26°C° 0 mm 3 mps 651 mmHg 11%
    18:00 +25°C° 0 mm 2 mps 651 mmHg 12%
    19:00 +24°C° 0 mm 2 mps 651 mmHg 13%
    20:00 +22°C° 0 mm 1 mps 651 mmHg 14%
    21:00 +21°C° 0 mm 2 mps 651 mmHg 14%
    22:00 +20°C° 0 mm 2 mps 651 mmHg 14%
    23:00 +20°C° 0 mm 2 mps 652 mmHg 14%

    23 August, Thursday

    Time Temperature Precipitation Wind Pressure Humidity
    00:00 +19°C° 0 mm 2 mps 651 mmHg 15%
    01:00 +19°C° 0 mm 2 mps 651 mmHg 16%
    02:00 +18°C° 0 mm 2 mps 651 mmHg 16%
    03:00 +17°C° 0 mm 2 mps 650 mmHg 18%
    04:00 +16°C° 0 mm 2 mps 650 mmHg 19%
    05:00 +16°C° 0 mm 2 mps 650 mmHg 20%
    06:00 +17°C° 0 mm 2 mps 650 mmHg 23%
    07:00 +17°C° 0 mm 2 mps 651 mmHg 25%
    08:00 +19°C° 0 mm 1 mps 651 mmHg 28%
    09:00 +21°C° 0 mm 1 mps 652 mmHg 29%
    10:00 +23°C° 0 mm 2 mps 652 mmHg 29%
    11:00 +25°C° 0 mm 2 mps 652 mmHg 29%
    12:00 +26°C° 0 mm 2 mps 652 mmHg 25%
    13:00 +27°C° 0 mm 2 mps 651 mmHg 21%
    14:00 +29°C° 0 mm 3 mps 651 mmHg 17%
    15:00 +29°C° 0 mm 3 mps 651 mmHg 15%
    16:00 +29°C° 0 mm 3 mps 650 mmHg 14%
    17:00 +28°C° 0 mm 3 mps 650 mmHg 12%
    18:00 +26°C° 0 mm 3 mps 650 mmHg 13%
    19:00 +24°C° 0 mm 3 mps 650 mmHg 14%
    20:00 +21°C° 0 mm 4 mps 650 mmHg 15%
    21:00 +20°C° 0 mm 4 mps 650 mmHg 14%
    22:00 +19°C° 0 mm 4 mps 650 mmHg 14%
    23:00 +18°C° 0 mm 4 mps 650 mmHg 14%
    Show more